[[{"header":{"parameterUnit":"m.s-1","parameterCategory":1,"la1":30.2991,"la2":30.254,"lo1":-89.0895,"lo2":-89.0444,"dy":0.0017,"dx":0.0017,"nx":28,"ny":28,"refTime":"2023-09-22T09:00:00:Z","depth":0,"parameterNumber":2,"parameterNumberName":"U-component_of_WINDS"},"data":[0,0,0,0,0,0,0,0,0,0,0,0,0,0,0,0,0,0,0,0,0,0,0,0,0,0,0,0,0,0,0,0,0,0,0,0,0,0,0,0,0,0,0,0,0,0,0,0,0,0,0,0,0,0,0,0,0,0,-1.8319,-1.8318,0,-1.8277,-1.8277,-1.8276,-1.8138,-1.8135,-1.8132,-1.8129,-1.8091,-1.8093,-1.8094,0,0,0,0,0,0,0,0,0,0,0,0,0,-1.8282,-1.8284,-1.8319,-1.8318,-1.8318,-1.8277,-1.8277,-1.8276,-1.8139,-1.8135,-1.8131,-1.8128,-1.809,-1.8092,-1.8095,0,0,0,0,0,0,0,0,0,0,0,0,0,-1.8275,-1.8284,-1.8319,-1.8244,-1.8237,-1.8277,-1.8277,-1.8276,-1.814,-1.8135,-1.813,-1.8126,-1.8089,-1.8092,-1.8095,-1.8205,0,0,-1.8103,-1.8105,0,0,0,0,0,0,0,0,-1.8276,-1.8277,-1.8256,-1.8249,-1.8242,-1.8208,-1.8249,-1.8252,-1.8141,-1.8177,-1.8129,-1.8124,-1.8134,-1.8133,-1.8135,-1.8203,-1.8202,-1.8104,-1.8105,-1.8107,-1.8107,0,0,0,0,0,0,0,-1.8277,-1.8278,-1.8302,-1.8256,-1.8247,-1.8214,-1.8208,-1.8249,-1.8182,-1.8173,-1.8163,-1.816,-1.8129,-1.8133,-1.8133,-1.8201,-1.8104,-1.8106,-1.8108,-1.8109,-1.8357,-1.8361,0,0,0,0,0,0,-1.8287,-1.8279,-1.8304,-1.8301,-1.8248,-1.8218,-1.8211,-1.8224,-1.8181,-1.817,-1.8164,-1.8154,-1.813,-1.813,-1.8131,-1.8257,-1.8106,-1.8109,-1.8111,-1.8352,-1.8358,-1.8363,0,0,0,0,0,0,-1.8287,-1.8291,-1.8305,-1.8287,-1.8287,-1.8224,-1.8239,-1.8225,-1.8229,-1.8174,-1.8162,-1.818,-1.8127,-1.8127,-1.8187,-1.8254,-1.811,-1.8113,-1.8346,-1.8353,-1.836,-1.851,0,0,0,0,0,0,-1.8287,-1.8291,-1.8332,-1.8289,-1.8288,-1.8362,-1.8243,-1.8228,-1.8233,-1.822,-1.8186,-1.8176,-1.8123,-1.8184,-1.819,-1.8255,-1.8115,-1.834,-1.8349,-1.8358,-1.8499,-1.8522,-1.8541,0,0,0,0,0,-1.8286,-1.8377,-1.8335,-1.8339,-1.8337,-1.8366,-1.8365,-1.8301,-1.8239,-1.828,-1.8245,-1.8177,-1.8245,-1.8191,-1.8197,-1.8264,-1.8335,-1.8347,-1.8357,-1.8489,-1.8517,-1.854,0,0,0,0,0,0,-1.8431,-1.837,-1.8323,-1.8403,-1.839,-1.8342,-1.8392,-1.8333,-1.8339,-1.8326,-1.8248,-1.8241,-1.8313,-1.8294,-1.8234,-1.8368,-1.8279,-1.8292,-1.8377,-1.8403,-1.8424,-1.8427,-1.8117,0,0,0,0,0,-1.8472,-1.8499,-1.8445,-1.8521,-1.8516,-1.8456,-1.8466,-1.8417,-1.8402,-1.8396,-1.8365,-1.8354,-1.8372,-1.8387,-1.8401,-1.8495,-1.8486,-1.8544,-1.8565,-1.8583,-1.8595,-1.8643,-1.8668,-1.8399,-1.8399,-1.8399,0,0,-1.8558,-1.8528,-1.855,-1.8549,-1.8534,-1.8564,-1.8452,-1.8489,-1.8511,-1.8402,-1.8456,-1.8434,-1.8416,-1.8493,-1.8526,-1.848,-1.8667,-1.8597,-1.8611,-1.8614,-1.8657,-1.8683,-1.8705,-1.8407,-1.8405,-1.8404,0,0,-1.873,-1.871,-1.877,-1.8757,-1.8734,-1.8693,-1.8708,-1.8668,-1.8648,-1.8701,-1.8619,-1.8645,-1.8679,-1.8669,-1.8669,-1.8836,-1.8774,-1.8843,-1.8954,-1.9001,-1.9023,-1.9041,-1.9101,-1.9123,-1.8855,-1.8856,-1.8856,0,-1.884,-1.8881,-1.8809,-1.8851,-1.8853,-1.8754,-1.8815,-1.8806,-1.879,-1.8794,-1.8743,-1.8783,-1.8764,-1.8837,-1.8878,-1.8881,-1.8896,-1.8847,-1.9025,-1.9043,-1.9059,-1.9115,-1.9138,-1.8864,-1.8863,-1.8862,-1.8862,0,-1.9017,-1.9047,-1.9099,-1.9084,-1.9092,-1.9144,-1.908,-1.9097,-1.9048,-1.9013,-1.9068,-1.9041,-1.9048,-1.9062,-1.9015,-1.9129,-1.9101,-1.9039,-1.8948,-1.9094,-1.9146,-1.9167,-1.8876,-1.8873,-1.8871,-1.8869,0,0,-1.9281,-1.9224,-1.9245,-1.9236,-1.9203,-1.9226,-1.9273,-1.9278,-1.9294,-1.9286,-1.9324,-1.9355,-1.9296,-1.9296,-1.9247,-1.9289,-1.9423,-1.9221,-1.922,-1.926,-1.9547,-1.9595,-1.9621,-1.9382,-1.9385,-1.9388,-1.9549,0,-1.9444,-1.9519,-1.9456,-1.9544,-1.957,-1.9476,-1.9517,-1.9502,-1.947,-1.9489,-1.9454,-1.9477,-1.9398,-1.9397,-1.9434,-1.9399,-1.948,-1.9387,-1.9417,-1.9419,-1.9425,-1.9647,-1.9698,-1.985,-1.9568,-1.9572,-1.9574,0,-1.9644,-1.9643,-1.9734,-1.9694,-1.9703,-1.9741,-1.974,-1.9759,-1.974,-1.9714,-1.9713,-1.9653,-1.9697,-1.9608,-1.9668,-1.9606,-1.9614,-1.9599,-1.9603,-1.9604,-1.9506,-1.9655,-1.9897,-1.9921,-1.9605,-1.9603,-1.96,0,-1.9827,-1.9849,-1.9905,-1.9901,-1.9857,-1.9885,-1.9868,-1.9845,-1.9852,-1.9851,-1.9855,-1.9861,-1.9864,-1.9871,-1.9814,-1.9754,-1.9882,-1.9787,-1.9862,-1.9863,-1.9893,-1.9892,-2.0141,-1.9899,-1.9899,-1.9898,-1.9898,0,-2.0016,-2.0075,-1.9987,-2.0022,-2.0085,-2.0012,-2.0077,-2.005,-2.003,-2.0059,-1.9978,-2.0007,-1.993,-1.9951,-1.9907,-1.9964,-1.9966,-1.9947,-1.9934,-1.9954,-1.9957,-1.9959,-1.9947,-1.9904,-1.9903,-1.9902,-1.9901,0,-2.0231,-2.0175,-2.023,-2.0182,-2.0172,-2.0221,-2.018,-2.0211,-2.0173,-2.0211,-2.0215,-2.0156,-2.0177,-2.0121,-2.0134,-2.0104,-2.0186,-2.0156,-2.0192,-2.0183,-2.026,-2.0254,-2.052,-2.0551,-2.0289,-2.0292,-2.0294,0,-2.0356,-2.0398,-2.0355,-2.0367,-2.0354,-2.0376,-2.0381,-2.0311,-2.0321,-2.0302,-2.0336,-2.0349,-2.0356,-2.0394,-2.0354,-2.0363,-2.0333,-2.0426,-2.0334,-2.0352,-2.0335,-2.0333,-2.0337,-2.0445,-2.0448,-2.0451,-2.0453,0,-2.0582,-2.0551,-2.0562,-2.0564,-2.0572,-2.0571,-2.0563,-2.0579,-2.0503,-2.0518,-2.0537,-2.0543,-2.0555,-2.057,-2.057,-2.0553,-2.0492,-2.0482,-2.0499,-2.052,-2.0539,-2.053,-2.0244,-2.0476,-2.0474,-2.0472,-2.0471,-2.047,-2.0755,-2.0789,-2.0763,-2.0777,-2.0764,-2.0759,-2.0785,-2.0749,-2.0764,-2.0767,-2.0724,-2.0753,-2.0732,-2.0726,-2.0716,-2.0738,-2.0695,-2.0721,-2.0728,-2.0735,-2.0748,-2.0536,-2.0738,-2.0737,-2.0736,-2.0735,-2.0735,0,-2.0978,-2.0956,-2.097,-2.0961,-2.0973,-2.0911,-2.0899,-2.0914,-2.0939,-2.0925,-2.0933,-2.0955,-2.0969,-2.0929,-2.0937,-2.0963,-2.0934,-2.0967,-2.0965,-2.0962,-2.0785,-2.0769,-2.099,-2.099,-2.099,-2.099,-2.099,-2.099,-2.1094,-2.1147,-2.1114,-2.1159,-2.1137,-2.1163,-2.1161,-2.1156,-2.1144,-2.1172,-2.1182,-2.1155,-2.1131,-2.1137,-2.1147,-2.1135,-2.1142,-2.1185,-2.1164,-2.0999,-2.0975,-2.0951,-2.0935,-2.1187,-2.1187,-2.1338,-2.1339,-2.134]},{"header":{"parameterUnit":"m.s-1","parameterCategory":1,"la1":30.2991,"la2":30.254,"lo1":-89.0895,"lo2":-89.0444,"dy":0.0017,"dx":0.0017,"nx":28,"ny":28,"refTime":"2023-09-22T09:00:00:Z","depth":0,"parameterNumber":3,"parameterNumberName":"V-component_of_WINDS"},"data":[0,0,0,0,0,0,0,0,0,0,0,0,0,0,0,0,0,0,0,0,0,0,0,0,0,0,0,0,0,0,0,0,0,0,0,0,0,0,0,0,0,0,0,0,0,0,0,0,0,0,0,0,0,0,0,0,0,0,-2.6557,-2.6558,0,-2.6686,-2.6687,-2.6689,-2.6703,-2.6702,-2.67,-2.6699,-2.6829,-2.6834,-2.6838,0,0,0,0,0,0,0,0,0,0,0,0,0,-2.632,-2.6325,-2.6557,-2.6558,-2.656,-2.6686,-2.6687,-2.6689,-2.6703,-2.6702,-2.67,-2.6698,-2.6828,-2.6833,-2.6839,0,0,0,0,0,0,0,0,0,0,0,0,0,-2.6434,-2.6326,-2.6556,-2.6582,-2.6586,-2.6685,-2.6687,-2.669,-2.6703,-2.6702,-2.67,-2.6698,-2.6826,-2.6833,-2.6839,-2.6922,0,0,-2.6861,-2.6864,0,0,0,0,0,0,0,0,-2.6427,-2.6442,-2.6577,-2.658,-2.6585,-2.6676,-2.6652,-2.6767,-2.6704,-2.6659,-2.6699,-2.6697,-2.678,-2.679,-2.6819,-2.6928,-2.6933,-2.6862,-2.6866,-2.6869,-2.6871,0,0,0,0,0,0,0,-2.6419,-2.6437,-2.6608,-2.6579,-2.6584,-2.6587,-2.6601,-2.6674,-2.6728,-2.6662,-2.6664,-2.6679,-2.6781,-2.6812,-2.6822,-2.6935,-2.6861,-2.6868,-2.6872,-2.6875,-2.7118,-2.7121,0,0,0,0,0,0,-2.6407,-2.643,-2.6604,-2.6612,-2.65,-2.6592,-2.6608,-2.6649,-2.6728,-2.6738,-2.6681,-2.6679,-2.6801,-2.6814,-2.6827,-2.6928,-2.6869,-2.6875,-2.6879,-2.7116,-2.7119,-2.7121,0,0,0,0,0,0,-2.6402,-2.6422,-2.6598,-2.6521,-2.6544,-2.6599,-2.6644,-2.6652,-2.6683,-2.6741,-2.6751,-2.6702,-2.68,-2.6817,-2.6898,-2.6933,-2.6878,-2.6885,-2.7113,-2.7117,-2.712,-2.7131,0,0,0,0,0,0,-2.6395,-2.642,-2.6452,-2.6522,-2.6548,-2.6668,-2.6646,-2.6656,-2.6695,-2.6695,-2.6764,-2.6773,-2.68,-2.6888,-2.6905,-2.6941,-2.689,-2.7111,-2.7115,-2.7119,-2.7128,-2.7135,-2.714,0,0,0,0,0,-2.6387,-2.645,-2.6454,-2.6475,-2.6589,-2.667,-2.6685,-2.6715,-2.6698,-2.673,-2.6768,-2.6771,-2.6926,-2.6896,-2.6916,-2.6955,-2.7108,-2.7114,-2.7119,-2.7125,-2.7133,-2.714,0,0,0,0,0,0,-2.6382,-2.6459,-2.6465,-2.6553,-2.6605,-2.6672,-2.6714,-2.6722,-2.6779,-2.6776,-2.681,-2.6826,-2.6906,-2.6938,-2.6903,-2.7038,-2.7016,-2.7025,-2.7014,-2.7022,-2.7028,-2.7018,-2.6896,0,0,0,0,0,-2.6391,-2.6451,-2.6515,-2.6587,-2.6613,-2.6659,-2.6695,-2.6714,-2.6769,-2.6791,-2.6834,-2.6887,-2.6948,-2.6987,-2.7046,-2.7133,-2.7148,-2.717,-2.7176,-2.7181,-2.7188,-2.7237,-2.7247,-2.7138,-2.7138,-2.7138,0,0,-2.6411,-2.6461,-2.6496,-2.6587,-2.663,-2.669,-2.6677,-2.6742,-2.6787,-2.68,-2.688,-2.6914,-2.6975,-2.706,-2.7099,-2.7089,-2.7222,-2.7187,-2.7191,-2.7196,-2.7243,-2.7254,-2.7263,-2.7142,-2.7141,-2.714,0,0,-2.6478,-2.6522,-2.6586,-2.6629,-2.6694,-2.6725,-2.674,-2.6807,-2.683,-2.6911,-2.6922,-2.6976,-2.708,-2.7123,-2.7159,-2.7243,-2.7248,-2.7262,-2.7293,-2.734,-2.7349,-2.7357,-2.7387,-2.7397,-2.7269,-2.7269,-2.7269,0,-2.6494,-2.6586,-2.6618,-2.6682,-2.6722,-2.6738,-2.6803,-2.6843,-2.6924,-2.695,-2.6939,-2.707,-2.7112,-2.7207,-2.7228,-2.7256,-2.7275,-2.7253,-2.7345,-2.7354,-2.7361,-2.739,-2.7401,-2.727,-2.727,-2.727,-2.727,0,-2.6602,-2.6666,-2.671,-2.6789,-2.6834,-2.6898,-2.6939,-2.698,-2.6995,-2.7027,-2.7109,-2.7161,-2.723,-2.7255,-2.7269,-2.7352,-2.7344,-2.7339,-2.7316,-2.7372,-2.74,-2.7411,-2.7272,-2.7271,-2.7271,-2.7271,0,0,-2.6669,-2.6765,-2.678,-2.6816,-2.689,-2.694,-2.7005,-2.7074,-2.7109,-2.7164,-2.7219,-2.7308,-2.7303,-2.7343,-2.7363,-2.7405,-2.7468,-2.7394,-2.7396,-2.7406,-2.7563,-2.7566,-2.7579,-2.7473,-2.7475,-2.7477,-2.7558,0,-2.6743,-2.6861,-2.6892,-2.6991,-2.7051,-2.7067,-2.7124,-2.7175,-2.7207,-2.7261,-2.7296,-2.7358,-2.7347,-2.7372,-2.7414,-2.7452,-2.75,-2.7446,-2.7524,-2.7526,-2.7507,-2.7593,-2.7597,-2.7671,-2.7569,-2.7571,-2.7572,0,-2.6846,-2.6904,-2.701,-2.7077,-2.7103,-2.7153,-2.7219,-2.7272,-2.733,-2.735,-2.7396,-2.7412,-2.748,-2.7455,-2.755,-2.7513,-2.7546,-2.757,-2.7574,-2.7581,-2.7552,-2.7603,-2.7695,-2.7706,-2.7589,-2.7588,-2.7587,0,-2.6883,-2.6988,-2.7065,-2.7096,-2.7175,-2.721,-2.7245,-2.7301,-2.7341,-2.7399,-2.7425,-2.749,-2.7525,-2.7575,-2.7608,-2.7587,-2.77,-2.7678,-2.7719,-2.7718,-2.7741,-2.7739,-2.7839,-2.7764,-2.7763,-2.7763,-2.7763,0,-2.6963,-2.7027,-2.7083,-2.7131,-2.7203,-2.7238,-2.7308,-2.7343,-2.7393,-2.7447,-2.7466,-2.7516,-2.7557,-2.7613,-2.7639,-2.7714,-2.773,-2.7748,-2.7754,-2.7746,-2.7743,-2.7768,-2.7763,-2.7766,-2.7766,-2.7765,-2.7764,0,-2.7016,-2.7057,-2.7142,-2.7211,-2.7229,-2.7279,-2.7338,-2.7384,-2.7417,-2.7485,-2.7503,-2.7554,-2.7621,-2.766,-2.7744,-2.7761,-2.7844,-2.7848,-2.7824,-2.7827,-2.7865,-2.7861,-2.7985,-2.8003,-2.7915,-2.7916,-2.7916,0,-2.7064,-2.7114,-2.7188,-2.7226,-2.7262,-2.7323,-2.7364,-2.74,-2.7442,-2.7513,-2.7551,-2.7619,-2.7675,-2.7781,-2.7826,-2.789,-2.7895,-2.7934,-2.7905,-2.7896,-2.7896,-2.7892,-2.7897,-2.7939,-2.794,-2.794,-2.7941,0,-2.7145,-2.7163,-2.7222,-2.7288,-2.7337,-2.7391,-2.7444,-2.7474,-2.7519,-2.7566,-2.7635,-2.7678,-2.7765,-2.7832,-2.7901,-2.7936,-2.7946,-2.795,-2.7963,-2.7955,-2.7939,-2.7948,-2.7838,-2.7947,-2.7946,-2.7946,-2.7945,-2.7945,-2.7197,-2.7242,-2.7302,-2.7367,-2.7411,-2.7461,-2.7508,-2.7547,-2.7605,-2.7679,-2.7697,-2.777,-2.7827,-2.792,-2.7957,-2.8014,-2.8008,-2.8026,-2.8031,-2.8035,-2.8036,-2.793,-2.8027,-2.8027,-2.8027,-2.8027,-2.8027,0,-2.7278,-2.7318,-2.7377,-2.7452,-2.7503,-2.751,-2.7569,-2.7612,-2.7675,-2.7729,-2.7784,-2.7864,-2.7929,-2.7979,-2.8047,-2.8083,-2.8089,-2.8099,-2.8097,-2.8105,-2.8038,-2.802,-2.8093,-2.8093,-2.8093,-2.8093,-2.8093,-2.8093,-2.7326,-2.7403,-2.7428,-2.7527,-2.7566,-2.7638,-2.7671,-2.7717,-2.776,-2.7848,-2.7903,-2.7936,-2.7988,-2.8059,-2.812,-2.8133,-2.8157,-2.8166,-2.818,-2.8116,-2.8109,-2.8102,-2.8086,-2.8171,-2.8171,-2.8241,-2.8242,-2.8243]}]]